Georgetown, DE

7:19 PM EST on February 06, 2016 (GMT -0500)
Sussex County

Weather History for KGED - March, 2014

Change the Weather History Date:

Monday, March 24, 2014

  Actual Average Record
Temperature  
Mean Temperature 32 °F 47 °F  
Max Temperature 38 °F 57 °F 76 °F (1966)
Min Temperature 25 °F 37 °F 21 °F (1983)
Degree Days  
Heating Degree Days 33 18  
Month to date heating degree days 596 515  
Since 1 July heating degree days 3951 3795  
Cooling Degree Days 0 0  
Month to date cooling degree days 0 0  
Year to date cooling degree days 0 0  
Moisture  
Dew Point 11 °F    
Average Humidity 51    
Maximum Humidity 75    
Minimum Humidity 27    
Precipitation  
Precipitation 0.00 in 0.14 in 1.56 in (1989)
Month to date precipitation 1.56 2.99  
Year to date precipitation 8.74 8.70  
Sea Level Pressure  
Sea Level Pressure 30.22 in    
Wind  
Wind Speed 7 mph (NNW)    
Max Wind Speed 17 mph    
Max Gust Speed 24 mph    
Visibility 10 miles    
Events      
T = Trace of Precipitation, MM = Missing Value Source: NWS Daily Summary

Daily Weather History Graph

Daily Weather History Graph

Search for Another Location

Airport or City:

Trip Planner

Search our weather history database for the weather conditions in past years. The results will help you decide how hot, cold, wet, or windy it might be!

Date:

Astronomy

Mar. 24, 2014 Rise Set
Actual Time 6:58 AM EDT 7:17 PM EDT
Civil Twilight 6:32 AM EDT 7:43 PM EDT
Nautical Twilight 6:01 AM EDT 8:15 PM EDT
Astronomical Twilight 5:29 AM EDT 8:46 PM EDT
Moon 2:23 AM EDT (3/24) 12:43 PM EDT (3/24)
Length of Visible Light 13h 11m
Length of Day
12h 18m
Last Quarter, 43% of the Moon is Illuminated
Mar 24
Last Quarter
Mar 30
New
Apr 7
First Quarter
Apr 15
Full
Apr 22
Last Quarter

Hourly Weather History & Observations

Time (EDT) Temp. Windchill Dew Point Humidity Pressure Visibility Wind Dir Wind Speed Gust Speed Precip Events Conditions
12:54 AM 35.1 °F 27.9 °F 19.9 °F 54% 30.14 in 10.0 mi North 9.2 mph - N/A   Clear
1:54 AM 33.1 °F 26.1 °F 16.0 °F 50% 30.17 in 10.0 mi North 8.1 mph - N/A   Clear
2:54 AM 30.9 °F 21.7 °F 14.0 °F 50% 30.18 in 10.0 mi North 11.5 mph - N/A   Clear
3:54 AM 30.0 °F 21.1 °F 15.1 °F 54% 30.19 in 10.0 mi North 10.4 mph - N/A   Clear
4:54 AM 28.9 °F 19.8 °F 12.0 °F 49% 30.21 in 10.0 mi North 10.4 mph - N/A   Clear
5:54 AM 27.0 °F 16.1 °F 9.0 °F 47% 30.23 in 10.0 mi North 12.7 mph 23.0 mph N/A   Clear
6:54 AM 26.1 °F 17.6 °F 7.0 °F 44% 30.26 in 10.0 mi North 8.1 mph - N/A   Clear
7:54 AM 26.1 °F 17.6 °F 8.1 °F 47% 30.29 in 10.0 mi North 8.1 mph - N/A   Clear
8:54 AM 27.0 °F 18.7 °F 8.1 °F 45% 30.31 in 10.0 mi North 8.1 mph 17.3 mph N/A   Clear
9:54 AM 28.9 °F 19.8 °F 8.1 °F 41% 30.31 in 10.0 mi North 10.4 mph 18.4 mph N/A   Clear
10:54 AM 30.0 °F 20.0 °F 7.0 °F 38% 30.30 in 10.0 mi North 12.7 mph 16.1 mph N/A   Clear
11:54 AM 33.1 °F 26.1 °F 8.1 °F 35% 30.28 in 10.0 mi North 8.1 mph - N/A   Clear
12:54 PM 33.1 °F 26.9 °F 6.1 °F 32% 30.25 in 10.0 mi WNW 6.9 mph - N/A   Clear
1:54 PM 35.1 °F 27.4 °F 7.0 °F 31% 30.23 in 10.0 mi WNW 10.4 mph - N/A   Clear
2:54 PM 36.0 °F 28.0 °F 8.1 °F 31% 30.20 in 10.0 mi WNW 11.5 mph - N/A   Clear
3:54 PM 37.0 °F 31.6 °F 7.0 °F 29% 30.17 in 10.0 mi Variable 6.9 mph 16.1 mph N/A   Clear
4:54 PM 37.0 °F 31.0 °F 6.1 °F 28% 30.17 in 10.0 mi West 8.1 mph - N/A   Clear
5:54 PM 37.0 °F 31.6 °F 6.1 °F 28% 30.19 in 10.0 mi Variable 6.9 mph - N/A   Clear
6:54 PM 36.0 °F 31.1 °F 7.0 °F 30% 30.19 in 10.0 mi WNW 5.8 mph - N/A   Clear
7:54 PM 35.1 °F - 8.1 °F 33% 30.19 in 10.0 mi Calm Calm - N/A   Clear
8:54 PM 28.9 °F 21.9 °F 18.0 °F 64% 30.21 in 10.0 mi SSE 6.9 mph - N/A   Clear
9:54 PM 28.0 °F 20.8 °F 18.0 °F 66% 30.20 in 10.0 mi South 6.9 mph - N/A   Clear
10:54 PM 27.0 °F - 18.0 °F 69% 30.19 in 10.0 mi Calm Calm - N/A   Clear
11:54 PM 27.0 °F - 19.0 °F 72% 30.18 in 10.0 mi Calm Calm - N/A   Clear